Location: Unspecified
(0.0000°N, 0.0000°E)
Time: 16:16:44
(UTC+00:00)

ATLAS 5 CENTAUR DEB - Pass Details

Date: 10 March 2026
Orbit: 7294 x 36414 km, 19.5° (Epoch: 14 February)

Event Time Altitude Azimuth Distance (km) Brightness Sun altitude
Rises 15:03:01 0° 268° (W) 12,503 ? 46.7°
Reaches altitude 10° 15:10:22 10° 263° (W) 11,965 ? 44.8°
Maximum altitude 21:54:37 85° 213° (SSW) 36,229 ? -55.9°
Enters shadow 00:17:30 74° 296° (WNW) 30,281 ? -85.8°
Exits shadow 01:28:56 70° 319° (NW) 23,840 ? -70.0°
Drops below altitude 10° 03:34:02 10° 71° (ENE) 12,048 ? -38.9°
Sets 03:41:26 0° 76° (ENE) 12,559 ? -37.1°
